User: anonymous   Login
Location: Mountain Grove
(34.0887°N, 86.6172°W)
Time: 08:54:35
(UTC+00:00)
Language:

CZ-2D R/B - Orbit

View from above orbital plane
View from above orbital plane
View from above satellite
View from above satellite

Ground track
Ground track

The orbit data is extracted from the following two-line orbital elements,

1 36597U 10027B   20265.89788643 +.00000225 +00000-0 +28108-4 0  9990
2 36597 097.8785 223.6443 0062313 024.3131 336.1005 14.90714908557951
Epoch (UTC): 21 September 2020 21:32:57
Eccentricity: 0.0062313
inclination: 97.8785°
perigee height: 552 km
apogee height: 639 km
right ascension of ascending node: 223.6443°
argument of perigee: 24.3131°
revolutions per day: 14.90714908
mean anomaly at epoch: 336.1005°
orbit number at epoch: 55795

The dashed part of the orbit path shows where the satellite is in the earth's shadow,  

DLR